| time (UTC) | temp F | wind direction | speed MPH | gust MPH | rain 1hr in | rain 24hr in | rain mn in | humidity % | barometer mb |
| 20260510105029 | 57 | 353 | 12.0 | 18.0 | 0.00 | 0.00 | 0.00 | 72 | 1015.3 |
| 20260510104030 | 57 | 340 | 14.0 | 19.0 | 0.00 | 0.00 | 0.00 | 73 | 1015.5 |
| 20260510103030 | 57 | 355 | 11.0 | 19.0 | 0.00 | 0.00 | 0.00 | 73 | 1015.4 |
| 20260510102030 | 57 | 359 | 11.0 | 19.0 | 0.00 | 0.00 | 0.00 | 74 | 1015.5 |
| 20260510101030 | 56 | 349 | 14.0 | 20.0 | 0.00 | 0.00 | 0.00 | 74 | 1015.4 |
| 20260510100030 | 56 | 338 | 13.0 | 19.0 | 0.00 | 0.00 | 0.00 | 76 | 1015.4 |
| 20260510095029 | 56 | 336 | 14.0 | 19.0 | 0.00 | 0.00 | 0.00 | 77 | 1015.4 |
| 20260510094029 | 56 | 330 | 15.0 | 19.0 | 0.00 | 0.00 | 0.00 | 78 | 1015.4 |
| 20260510093030 | 55 | 333 | 15.0 | 19.0 | 0.00 | 0.00 | 0.00 | 78 | 1015.5 |
| 20260510092030 | 56 | 332 | 15.0 | 18.0 | 0.00 | 0.00 | 0.00 | 77 | 1015.6 |
| 20260510091030 | 56 | 338 | 13.0 | 19.0 | 0.00 | 0.00 | 0.00 | 72 | 1015.6 |
| 20260510090030 | 56 | 353 | 11.0 | 17.0 | 0.00 | 0.00 | 0.00 | 68 | 1015.7 |
| 20260510085030 | 55 | 341 | 13.0 | 17.0 | 0.00 | 0.00 | 0.00 | 68 | 1015.7 |
| 20260510084029 | 55 | 341 | 13.0 | 17.0 | 0.00 | 0.00 | 0.00 | 69 | 1015.6 |
| 20260510083029 | 55 | 344 | 10.0 | 17.0 | 0.00 | 0.00 | 0.00 | 68 | 1015.7 |
| 20260510082030 | 55 | 347 | 10.0 | 15.0 | 0.00 | 0.00 | 0.00 | 67 | 1015.8 |
| 20260510081030 | 55 | 32 | 9.0 | 19.0 | 0.00 | 0.00 | 0.00 | 66 | 1015.8 |
| 20260510080030 | 55 | 358 | 10.0 | 16.0 | 0.00 | 0.00 | 0.00 | 67 | 1015.8 |
| 20260510075030 | 55 | 13 | 9.0 | 16.0 | 0.00 | 0.00 | 0.00 | 67 | 1015.7 |
| 20260510074029 | 55 | 33 | 9.0 | 17.0 | 0.00 | 0.00 | 0.00 | 69 | 1015.7 |
| 20260510073029 | 54 | 22 | 10.0 | 16.0 | 0.00 | 0.00 | 0.00 | 71 | 1015.8 |
| 20260510072030 | 54 | 42 | 8.0 | 14.0 | 0.00 | 0.00 | 0.00 | 72 | 1015.8 |
| 20260510071030 | 55 | 16 | 9.0 | 14.0 | 0.00 | 0.00 | 0.00 | 73 | 1016.0 |
| 20260510070030 | 55 | 13 | 10.0 | 16.0 | 0.00 | 0.00 | 0.00 | 72 | 1016.0 |
| 20260510065030 | 55 | 28 | 10.0 | 15.0 | 0.00 | 0.00 | 0.00 | 71 | 1015.9 |
| 20260510064029 | 54 | 358 | 10.0 | 17.0 | 0.00 | 0.00 | 0.00 | 70 | 1015.9 |
| 20260510063029 | 54 | 23 | 10.0 | 18.0 | 0.00 | 0.00 | 0.00 | 70 | 1015.8 |
| 20260510062029 | 54 | 20 | 10.0 | 15.0 | 0.00 | 0.00 | 0.00 | 72 | 1015.7 |
| 20260510061030 | 54 | 13 | 10.0 | 16.0 | 0.00 | 0.00 | 0.00 | 73 | 1015.6 |
| 20260510060029 | 54 | 7 | 11.0 | 18.0 | 0.00 | 0.00 | 0.00 | 73 | 1015.8 |
| 20260510055030 | 54 | 10 | 9.0 | 15.0 | 0.00 | 0.00 | 0.00 | 73 | 1015.7 |
| 20260510054030 | 53 | 21 | 8.0 | 16.0 | 0.00 | 0.00 | 0.00 | 73 | 1015.7 |
| 20260510053029 | 53 | 30 | 9.0 | 17.0 | 0.00 | 0.00 | 0.00 | 72 | 1015.8 |
| 20260510052029 | 53 | 29 | 10.0 | 15.0 | 0.00 | 0.00 | 0.00 | 72 | 1015.8 |
| 20260510051029 | 53 | 13 | 9.0 | 16.0 | 0.00 | 0.00 | 0.00 | 72 | 1015.8 |
| 20260510050030 | 53 | 29 | 10.0 | 17.0 | 0.00 | 0.00 | 0.00 | 73 | 1015.6 |
| 20260510045030 | 53 | 10 | 9.0 | 16.0 | 0.00 | 0.00 | 0.00 | 73 | 1015.6 |
| 20260510044029 | 53 | 27 | 9.0 | 15.0 | 0.00 | 0.00 | 0.00 | 73 | 1015.5 |
| 20260510043029 | 53 | 24 | 8.0 | 15.0 | 0.00 | 0.00 | 0.00 | 74 | 1015.6 |
| 20260510042029 | 53 | 37 | 8.0 | 14.0 | 0.00 | 0.00 | 0.00 | 74 | 1015.6 |
| 20260510041029 | 53 | 21 | 9.0 | 17.0 | 0.00 | 0.00 | 0.00 | 76 | 1015.6 |
| 20260510040029 | 53 | 17 | 9.0 | 17.0 | 0.00 | 0.00 | 0.00 | 77 | 1015.6 |
| 20260510035030 | 53 | 13 | 8.0 | 15.0 | 0.00 | 0.00 | 0.00 | 77 | 1015.7 |
| 20260510034030 | 54 | 24 | 9.0 | 14.0 | 0.00 | 0.00 | 0.00 | 76 | 1015.8 |
| 20260510033029 | 53 | 33 | 7.0 | 13.0 | 0.00 | 0.00 | 0.00 | 76 | 1016.0 |
| 20260510032029 | 53 | 28 | 8.0 | 13.0 | 0.00 | 0.00 | 0.00 | 75 | 1016.0 |
| 20260510031030 | 54 | 18 | 7.0 | 13.0 | 0.00 | 0.00 | 0.00 | 76 | 1016.0 |
| 20260510030030 | 53 | 19 | 8.0 | 15.0 | 0.00 | 0.00 | 0.00 | 75 | 1016.0 |
| 20260510025030 | 53 | 6 | 9.0 | 14.0 | 0.00 | 0.00 | 0.00 | 77 | 1015.9 |
| 20260510024029 | 53 | 18 | 8.0 | 13.0 | 0.00 | 0.00 | 0.00 | 78 | 1015.9 |
| 20260510023030 | 54 | 23 | 9.0 | 13.0 | 0.00 | 0.00 | 0.00 | 79 | 1016.0 |
| 20260510022030 | 54 | 352 | 9.0 | 15.0 | 0.00 | 0.00 | 0.00 | 79 | 1016.0 |
| 20260510021029 | 54 | 352 | 8.0 | 13.0 | 0.00 | 0.00 | 0.00 | 79 | 1016.0 |
| 20260510020029 | 54 | 355 | 10.0 | 16.0 | 0.00 | 0.00 | 0.00 | 79 | 1016.1 |
| 20260510015030 | 54 | 15 | 9.0 | 14.0 | 0.00 | 0.00 | 0.00 | 78 | 1016.1 |
| 20260510014029 | 54 | 357 | 9.0 | 13.0 | 0.00 | 0.00 | 0.00 | 78 | 1016.1 |
| 20260510013030 | 54 | 5 | 7.0 | 13.0 | 0.00 | 0.00 | 0.00 | 78 | 1016.2 |
| 20260510012030 | 54 | 5 | 9.0 | 13.0 | 0.00 | 0.00 | 0.00 | 78 | 1016.1 |
| 20260510011030 | 54 | 351 | 8.0 | 13.0 | 0.00 | 0.00 | 0.00 | 78 | 1016.1 |
| 20260510010029 | 54 | 344 | 9.0 | 12.0 | 0.00 | 0.00 | 0.00 | 79 | 1016.2 |
| 20260510005030 | 54 | 348 | 8.0 | 12.0 | 0.00 | 0.00 | 0.00 | 80 | 1016.1 |
| 20260510004030 | 54 | 5 | 6.0 | 13.0 | 0.00 | 0.00 | 0.00 | 80 | 1016.2 |
| 20260510003029 | 54 | 22 | 4.0 | 8.0 | 0.00 | 0.00 | 0.00 | 79 | 1016.2 |
| 20260510002029 | 54 | 38 | 5.0 | 9.0 | 0.00 | 0.00 | 0.00 | 78 | 1016.3 |
| 20260510001029 | 54 | 37 | 4.0 | 6.0 | 0.00 | 0.00 | 0.00 | 77 | 1016.4 |
| 20260510000030 | 55 | 33 | 4.0 | 7.0 | 0.00 | 0.00 | 0.00 | 77 | 1016.4 |
| 20260509235030 | 55 | 40 | 4.0 | 8.0 | 0.00 | 0.00 | 0.00 | 76 | 1016.5 |
| 20260509234029 | 55 | 48 | 4.0 | 7.0 | 0.00 | 0.00 | 0.00 | 76 | 1016.6 |
| 20260509233030 | 55 | 48 | 4.0 | 6.0 | 0.00 | 0.00 | 0.00 | 75 | 1016.5 |
| 20260509232029 | 56 | 47 | 4.0 | 7.0 | 0.00 | 0.00 | 0.00 | 74 | 1016.5 |
| 20260509231030 | 55 | 51 | 4.0 | 8.0 | 0.00 | 0.00 | 0.00 | 73 | 1016.6 |
| 20260509230030 | 56 | 48 | 4.0 | 8.0 | 0.00 | 0.00 | 0.00 | 73 | 1016.6 |
| 20260509225029 | 56 | 35 | 5.0 | 8.0 | 0.00 | 0.00 | 0.00 | 72 | 1016.7 |
| 20260509224029 | 56 | 37 | 5.0 | 10.0 | 0.00 | 0.00 | 0.00 | 72 | 1016.8 |
| 20260509223030 | 56 | 44 | 6.0 | 10.0 | 0.00 | 0.00 | 0.00 | 72 | 1016.8 |
| 20260509222035 | 56 | 40 | 6.0 | 11.0 | 0.00 | 0.00 | 0.00 | 72 | 1016.9 |
| 20260509221030 | 56 | 33 | 7.0 | 11.0 | 0.00 | 0.00 | 0.00 | 72 | 1016.9 |
| 20260509220030 | 56 | 39 | 7.0 | 12.0 | 0.00 | 0.00 | 0.00 | 72 | 1016.9 |
| 20260509215029 | 56 | 26 | 6.0 | 11.0 | 0.00 | 0.00 | 0.00 | 73 | 1017.0 |
| 20260509214030 | 57 | 32 | 7.0 | 12.0 | 0.00 | 0.00 | 0.00 | 73 | 1016.9 |
| 20260509213030 | 57 | 37 | 8.0 | 12.0 | 0.00 | 0.00 | 0.00 | 73 | 1017.0 |
| 20260509212029 | 57 | 41 | 7.0 | 11.0 | 0.00 | 0.00 | 0.00 | 73 | 1017.1 |
| 20260509211030 | 57 | 34 | 7.0 | 11.0 | 0.00 | 0.00 | 0.00 | 72 | 1017.1 |
| 20260509210030 | 57 | 36 | 7.0 | 12.0 | 0.00 | 0.00 | 0.00 | 71 | 1017.0 |
| 20260509205030 | 58 | 37 | 7.0 | 11.0 | 0.00 | 0.00 | 0.00 | 71 | 1017.2 |
| 20260509204030 | 58 | 34 | 7.0 | 12.0 | 0.00 | 0.00 | 0.00 | 70 | 1017.1 |
| 20260509203030 | 58 | 40 | 6.0 | 11.0 | 0.00 | 0.00 | 0.00 | 70 | 1017.2 |
| 20260509202029 | 58 | 38 | 6.0 | 10.0 | 0.00 | 0.00 | 0.00 | 69 | 1017.2 |
| 20260509201030 | 59 | 33 | 6.0 | 11.0 | 0.00 | 0.00 | 0.00 | 69 | 1017.1 |
| 20260509200030 | 59 | 43 | 6.0 | 10.0 | 0.00 | 0.00 | 0.00 | 68 | 1017.1 |
| 20260509195030 | 59 | 41 | 6.0 | 10.0 | 0.00 | 0.00 | 0.00 | 68 | 1017.1 |
| 20260509194029 | 59 | 28 | 6.0 | 12.0 | 0.00 | 0.00 | 0.00 | 69 | 1017.1 |
| 20260509193029 | 60 | 24 | 7.0 | 12.0 | 0.00 | 0.00 | 0.00 | 70 | 1016.9 |
| 20260509192030 | 60 | 6 | 8.0 | 13.0 | 0.00 | 0.00 | 0.00 | 69 | 1016.8 |
| 20260509191030 | 60 | 357 | 9.0 | 13.0 | 0.00 | 0.00 | 0.00 | 68 | 1016.7 |
| 20260509190030 | 61 | 349 | 9.0 | 13.0 | 0.00 | 0.00 | 0.00 | 66 | 1016.7 |
| 20260509185029 | 61 | 357 | 7.0 | 10.0 | 0.00 | 0.00 | 0.00 | 65 | 1016.7 |
| 20260509184030 | 61 | 23 | 6.0 | 10.0 | 0.00 | 0.00 | 0.00 | 65 | 1016.7 |
| 20260509183030 | 61 | 357 | 7.0 | 11.0 | 0.00 | 0.00 | 0.00 | 65 | 1016.7 |
| 20260509182030 | 62 | 350 | 7.0 | 11.0 | 0.00 | 0.00 | 0.00 | 63 | 1016.6 |
| 20260509181030 | 62 | 1 | 6.0 | 11.0 | 0.00 | 0.00 | 0.00 | 64 | 1016.7 |
| 20260509180030 | 61 | 352 | 5.0 | 10.0 | 0.00 | 0.00 | 0.00 | 64 | 1016.6 |
| 20260509175029 | 61 | 333 | 8.0 | 11.0 | 0.00 | 0.00 | 0.00 | 65 | 1016.7 |
| 20260509174029 | 61 | 333 | 9.0 | 12.0 | 0.00 | 0.00 | 0.00 | 63 | 1016.7 |
| 20260509173030 | 61 | 331 | 10.0 | 13.0 | 0.00 | 0.00 | 0.00 | 62 | 1016.7 |
| 20260509172030 | 62 | 338 | 10.0 | 12.0 | 0.00 | 0.00 | 0.00 | 62 | 1016.8 |
| 20260509171029 | 62 | 339 | 9.0 | 13.0 | 0.00 | 0.00 | 0.00 | 62 | 1016.7 |
| 20260509170030 | 62 | 352 | 9.0 | 12.0 | 0.00 | 0.00 | 0.00 | 59 | 1016.7 |
| 20260509165030 | 62 | 349 | 8.0 | 13.0 | 0.00 | 0.00 | 0.00 | 61 | 1016.5 |
| 20260509164030 | 62 | 339 | 11.0 | 14.0 | 0.00 | 0.00 | 0.00 | 59 | 1016.5 |
| 20260509163029 | 62 | 352 | 10.0 | 14.0 | 0.00 | 0.00 | 0.00 | 58 | 1016.6 |
| 20260509162030 | 62 | 9 | 9.0 | 13.0 | 0.00 | 0.00 | 0.00 | 60 | 1016.5 |
| 20260509161030 | 63 | 0 | 9.0 | 14.0 | 0.00 | 0.00 | 0.00 | 60 | 1016.5 |
| 20260509160029 | 62 | 354 | 9.0 | 13.0 | 0.00 | 0.00 | 0.00 | 60 | 1016.4 |
| 20260509155030 | 61 | 343 | 10.0 | 14.0 | 0.00 | 0.00 | 0.00 | 60 | 1016.5 |
| 20260509154030 | 62 | 2 | 9.0 | 13.0 | 0.00 | 0.00 | 0.00 | 59 | 1016.5 |
| 20260509153030 | 62 | 352 | 9.0 | 14.0 | 0.00 | 0.00 | 0.00 | 60 | 1016.6 |
| 20260509152029 | 61 | 340 | 10.0 | 14.0 | 0.00 | 0.00 | 0.00 | 61 | 1016.6 |
| 20260509151030 | 61 | 343 | 11.0 | 14.0 | 0.00 | 0.00 | 0.00 | 61 | 1016.7 |
| 20260509150030 | 61 | 348 | 9.0 | 13.0 | 0.00 | 0.00 | 0.00 | 61 | 1017.0 |
| 20260509145030 | 61 | 340 | 11.0 | 15.0 | 0.00 | 0.00 | 0.00 | 60 | 1017.2 |
| 20260509144030 | 61 | 332 | 10.0 | 14.0 | 0.00 | 0.00 | 0.00 | 61 | 1017.3 |
| 20260509143029 | 61 | 1 | 7.0 | 14.0 | 0.00 | 0.00 | 0.00 | 60 | 1017.5 |
| 20260509142030 | 60 | 338 | 11.0 | 14.0 | 0.00 | 0.00 | 0.00 | 61 | 1017.4 |
| 20260509141029 | 61 | 331 | 12.0 | 15.0 | 0.00 | 0.00 | 0.00 | 60 | 1017.5 |
| 20260509140030 | 61 | 339 | 11.0 | 15.0 | 0.00 | 0.00 | 0.00 | 58 | 1017.6 |
| 20260509135030 | 61 | 341 | 10.0 | 15.0 | 0.00 | 0.00 | 0.00 | 58 | 1017.7 |
| 20260509134029 | 61 | 0 | 9.0 | 14.0 | 0.00 | 0.00 | 0.00 | 61 | 1017.7 |
| 20260509133030 | 60 | 335 | 11.0 | 15.0 | 0.00 | 0.00 | 0.00 | 61 | 1017.9 |
| 20260509132029 | 60 | 329 | 11.0 | 15.0 | 0.00 | 0.00 | 0.00 | 60 | 1018.2 |
| 20260509131029 | 60 | 338 | 10.0 | 13.0 | 0.00 | 0.00 | 0.00 | 61 | 1018.2 |
| 20260509130030 | 60 | 335 | 9.0 | 13.0 | 0.00 | 0.00 | 0.00 | 60 | 1018.4 |
| 20260509125029 | 60 | 327 | 11.0 | 14.0 | 0.00 | 0.00 | 0.00 | 61 | 1018.6 |
| 20260509124030 | 59 | 323 | 11.0 | 14.0 | 0.00 | 0.00 | 0.00 | 62 | 1018.6 |
| 20260509123030 | 59 | 327 | 11.0 | 15.0 | 0.00 | 0.00 | 0.00 | 63 | 1018.6 |
| 20260509122029 | 60 | 321 | 12.0 | 14.0 | 0.00 | 0.00 | 0.00 | 61 | 1018.7 |
| 20260509121029 | 61 | 346 | 6.0 | 13.0 | 0.00 | 0.00 | 0.00 | 58 | 1018.7 |
| 20260509120030 | 61 | 69 | 4.0 | 12.0 | 0.00 | 0.00 | 0.00 | 57 | 1018.7 |
| 20260509115029 | 61 | 83 | 4.0 | 12.0 | 0.00 | 0.00 | 0.00 | 56 | 1018.7 |
| 20260509114030 | 61 | 55 | 6.0 | 12.0 | 0.00 | 0.00 | 0.00 | 55 | 1018.7 |
| 20260509113030 | 60 | 12 | 6.0 | 13.0 | 0.00 | 0.00 | 0.00 | 57 | 1018.7 |
| 20260509112029 | 60 | 31 | 8.0 | 13.0 | 0.00 | 0.00 | 0.00 | 57 | 1018.9 |
| 20260509111030 | 60 | 5 | 7.0 | 13.0 | 0.00 | 0.00 | 0.00 | 58 | 1018.9 |
| 20260509110029 | 61 | 37 | 4.0 | 9.0 | 0.00 | 0.00 | 0.00 | 57 | 1019.0 |